Zurück zum Katalog

STARLINK-31921

AktivKommunikationVLEO
NORAD 59868·PAYLOAD·🇺🇸 United States

Gestartet May 24, 2024 von Cape Canaveral Space Force Station

Loading…

Nächste Überflüge (nächste 24 Stunden)

TLE

AktuellSource: CelesTrak SupGP

Epoche: Sep 14, 2026, 22:55 UTC

1 59868C 24098L   26257.95534722  .00024755  00000+0  89677-3 0  2577
2 59868  42.9992 248.7685 0001368 263.4769 221.8864 15.27561309    19

Verfolge STARLINK-31921 in Echtzeit mit AllMySat

Download on the App Store